Weather History for KCCU - April, 2014

Change the Weather History Date:

Monday, April 21, 2014

  Actual Average (KLXV) Record (KLXV)
Temperature  
Mean Temperature 38 °F -  
Max Temperature 44 °F 45 °F 62 °F (1989)
Min Temperature 33 °F 20 °F 6 °F (1993)
Degree Days  
Heating Degree Days 26 32  
Month to date heating degree days 740  
Since 1 July heating degree days 9723  
Cooling Degree Days 0 0  
Month to date cooling degree days 0  
Year to date cooling degree days 0  
Moisture  
Dew Point 20 °F    
Average Humidity 51    
Maximum Humidity 81    
Minimum Humidity 25    
Precipitation  
Precipitation 0.00 in 0.03 in 0.34 in (2011)
Month to date precipitation 0.75  
Year to date precipitation 3.01  
Sea Level Pressure  
Sea Level Pressure 30.46 in    
Wind  
Wind Speed 10 mph (WSW)    
Max Wind Speed 26 mph    
Max Gust Speed 33 mph    
Visibility 10 miles    
Events      
T = Trace of Precipitation, MM = Missing Value Source: NWS Daily Summary

Daily Weather History Graph

Daily Weather History Graph

Search for Another Location

Airport or City:

Trip Planner

Search our weather history database for the weather conditions in past years. The results will help you decide how hot, cold, wet, or windy it might be!

Date:

Astronomy

Apr. 21, 2014 Rise Set
Actual Time 6:18 AM MDT 7:48 PM MDT
Civil Twilight 5:50 AM MDT 8:16 PM MDT
Nautical Twilight 5:16 AM MDT 8:50 PM MDT
Astronomical Twilight 4:40 AM MDT 9:26 PM MDT
Moon 1:20 AM MDT (4/21) 11:48 AM MDT (4/21)
Length of Visible Light 14h 26m
Length of Day
13h 29m
Waning Gibbous, 57% of the Moon is Illuminated
Apr 21
Waning Gibbous
Apr 22
Last Quarter
Apr 29
New
May 6
First Quarter
May 14
Full

Hourly Weather History & Observations

Time (MDT) Temp. Windchill Dew Point Humidity Pressure Visibility Wind Dir Wind Speed Gust Speed Precip Events Conditions
12:16 AM 33.8 °F 24.8 °F 28.4 °F 81% 30.45 in 10.0 mi West 12.7 mph - N/A   Scattered Clouds
12:36 AM 33.8 °F 26.4 °F 26.6 °F 75% 30.45 in 10.0 mi West 9.2 mph - N/A   Scattered Clouds
12:56 AM 33.8 °F 25.8 °F 26.6 °F 75% 30.45 in 10.0 mi West 10.4 mph - N/A   Clear
1:16 AM 33.8 °F 28.6 °F 24.8 °F 70% 30.45 in 10.0 mi West 5.8 mph - N/A   Clear
1:36 AM 33.8 °F 30.8 °F 23.0 °F 65% 30.46 in 10.0 mi NW 3.5 mph - N/A   Clear
1:56 AM 33.8 °F 27.7 °F 23.0 °F 65% 30.45 in 10.0 mi West 6.9 mph - N/A   Clear
2:16 AM 33.8 °F 30.8 °F 23.0 °F 65% 30.45 in 10.0 mi WNW 3.5 mph - N/A   Clear
2:36 AM 33.8 °F 30.8 °F 23.0 °F 65% 30.45 in 10.0 mi WNW 3.5 mph - N/A   Clear
2:56 AM 33.8 °F 30.8 °F 23.0 °F 65% 30.44 in 10.0 mi WNW 3.5 mph - N/A   Clear
3:16 AM 33.8 °F 30.8 °F 21.2 °F 60% 30.44 in 10.0 mi WNW 3.5 mph - N/A   Clear
3:36 AM 33.8 °F 27.7 °F 23.0 °F 65% 30.44 in 10.0 mi West 6.9 mph - N/A   Clear
3:56 AM 33.8 °F 30.8 °F 23.0 °F 65% 30.44 in 10.0 mi West 3.5 mph - N/A   Clear
4:16 AM 33.8 °F 30.8 °F 23.0 °F 65% 30.45 in 10.0 mi West 3.5 mph - N/A   Clear
4:36 AM 33.8 °F 26.4 °F 21.2 °F 60% 30.45 in 10.0 mi West 9.2 mph - N/A   Clear
4:56 AM 33.8 °F 27.7 °F 23.0 °F 65% 30.45 in 10.0 mi West 6.9 mph - N/A   Clear
5:16 AM 33.8 °F 30.8 °F 23.0 °F 65% 30.45 in 10.0 mi West 3.5 mph - N/A   Clear
5:36 AM 33.8 °F 26.4 °F 23.0 °F 65% 30.45 in 10.0 mi West 9.2 mph - N/A   Clear
5:56 AM 33.8 °F 25.8 °F 23.0 °F 65% 30.45 in 10.0 mi West 10.4 mph - N/A   Clear
6:16 AM 33.8 °F 27.7 °F 21.2 °F 60% 30.45 in 10.0 mi West 6.9 mph - N/A   Clear
6:36 AM 33.8 °F 27.7 °F 23.0 °F 65% 30.46 in 10.0 mi West 6.9 mph - N/A   Clear
6:56 AM 33.8 °F 28.6 °F 23.0 °F 65% 30.46 in 10.0 mi West 5.8 mph - N/A   Clear
7:16 AM 33.8 °F 28.6 °F 23.0 °F 65% 30.46 in 10.0 mi South 5.8 mph - N/A   Clear
7:56 AM 33.8 °F 30.8 °F 21.2 °F 60% 30.48 in 10.0 mi NW 3.5 mph - N/A   Clear
8:16 AM 33.8 °F 29.6 °F 21.2 °F 60% 30.47 in 10.0 mi WNW 4.6 mph - N/A   Clear
8:36 AM 35.6 °F 29.9 °F 23.0 °F 60% 30.48 in 10.0 mi South 6.9 mph - N/A   Clear
8:56 AM 35.6 °F 27.5 °F 23.0 °F 60% 30.48 in 10.0 mi South 11.5 mph - N/A   Clear
9:16 AM 35.6 °F 27.1 °F 23.0 °F 60% 30.47 in 10.0 mi South 12.7 mph - N/A   Clear
9:36 AM 37.4 °F 29.3 °F 23.0 °F 56% 30.47 in 10.0 mi South 12.7 mph 18.4 mph N/A   Clear
9:56 AM 37.4 °F 29.3 °F 23.0 °F 56% 30.48 in 10.0 mi South 12.7 mph 18.4 mph N/A   Clear
10:16 AM 37.4 °F 28.9 °F 23.0 °F 56% 30.48 in 10.0 mi South 13.8 mph 19.6 mph N/A   Clear
10:36 AM 37.4 °F 29.3 °F 23.0 °F 56% 30.49 in 10.0 mi South 12.7 mph 19.6 mph N/A   Clear
10:56 AM 37.4 °F 33.8 °F 21.2 °F 52% 30.49 in 10.0 mi SW 4.6 mph - N/A   Scattered Clouds
11:16 AM 39.2 °F 34.2 °F 21.2 °F 49% 30.49 in 10.0 mi WSW 6.9 mph - N/A   Mostly Cloudy
11:36 AM 41.0 °F 34.7 °F 21.2 °F 45% 30.49 in 10.0 mi West 10.4 mph 17.3 mph N/A   Mostly Cloudy
11:56 AM 41.0 °F 35.2 °F 19.4 °F 42% 30.49 in 10.0 mi WSW 9.2 mph 20.7 mph N/A   Scattered Clouds
12:16 PM 42.8 °F 37.5 °F 19.4 °F 39% 30.48 in 10.0 mi WSW 9.2 mph 17.3 mph N/A   Mostly Cloudy
12:36 PM 42.8 °F 36.6 °F 19.4 °F 39% 30.48 in 10.0 mi SW 11.5 mph 19.6 mph N/A   Overcast
12:56 PM 44.6 °F 40.2 °F 17.6 °F 34% 30.48 in 10.0 mi SSW 8.1 mph 21.9 mph N/A   Mostly Cloudy
1:16 PM 44.6 °F 39.2 °F 15.8 °F 31% 30.48 in 10.0 mi WSW 10.4 mph 23.0 mph N/A   Mostly Cloudy
1:36 PM 44.6 °F 40.7 °F 14.0 °F 29% 30.47 in 10.0 mi WSW 6.9 mph 24.2 mph N/A   Overcast
1:56 PM 44.6 °F 39.7 °F 17.6 °F 34% 30.48 in 10.0 mi WSW 9.2 mph 20.7 mph N/A   Overcast
2:16 PM 44.6 °F 39.2 °F 19.4 °F 37% 30.47 in 10.0 mi WSW 10.4 mph 26.5 mph N/A   Overcast
2:36 PM 42.8 °F 34.5 °F 21.2 °F 42% 30.47 in 10.0 mi West 18.4 mph 25.3 mph N/A   Overcast
2:56 PM 44.6 °F 36.6 °F 21.2 °F 39% 30.47 in 10.0 mi West 19.6 mph 28.8 mph N/A   Overcast
3:16 PM 44.6 °F 39.7 °F 21.2 °F 39% 30.47 in 10.0 mi West 9.2 mph 28.8 mph N/A   Mostly Cloudy
3:36 PM 44.6 °F 35.9 °F 15.8 °F 31% 30.46 in 10.0 mi West 23.0 mph 32.2 mph N/A   Scattered Clouds
3:56 PM 44.6 °F 36.1 °F 17.6 °F 34% 30.45 in 10.0 mi West 21.9 mph 26.5 mph N/A   Scattered Clouds
4:16 PM 44.6 °F 35.3 °F 10.4 °F 25% 30.45 in 10.0 mi West 26.5 mph 32.2 mph N/A   Mostly Cloudy
4:36 PM 44.6 °F 36.6 °F 10.4 °F 25% 30.45 in 10.0 mi West 19.6 mph 33.4 mph N/A   Scattered Clouds
4:56 PM 44.6 °F 36.6 °F 12.2 °F 27% 30.45 in 10.0 mi West 19.6 mph 29.9 mph N/A   Clear
5:16 PM 44.6 °F 37.8 °F 14.0 °F 29% 30.45 in 10.0 mi WNW 15.0 mph 32.2 mph N/A   Mostly Cloudy
5:36 PM 44.6 °F 35.5 °F 14.0 °F 29% 30.45 in 10.0 mi West 25.3 mph 31.1 mph N/A   Scattered Clouds
5:56 PM 41.0 °F 35.2 °F 17.6 °F 39% 30.45 in 10.0 mi SW 9.2 mph 24.2 mph N/A   Clear
6:16 PM 41.0 °F 33.1 °F 19.4 °F 42% 30.44 in 10.0 mi West 15.0 mph 19.6 mph N/A   Scattered Clouds
6:36 PM 44.6 °F 36.4 °F 17.6 °F 34% 30.44 in 10.0 mi West 20.7 mph 25.3 mph N/A   Mostly Cloudy
6:56 PM 42.8 °F 35.1 °F 17.6 °F 36% 30.44 in 10.0 mi West 16.1 mph 21.9 mph N/A   Scattered Clouds
7:16 PM 41.0 °F 31.9 °F 17.6 °F 39% 30.44 in 10.0 mi West 19.6 mph - N/A   Clear
7:36 PM 41.0 °F 33.5 °F 19.4 °F 42% 30.44 in 10.0 mi West 13.8 mph - N/A   Clear
7:56 PM 37.4 °F 28.9 °F 19.4 °F 48% 30.44 in 10.0 mi West 13.8 mph 20.7 mph N/A   Clear
8:16 PM 37.4 °F 28.5 °F 19.4 °F 48% 30.44 in 10.0 mi West 15.0 mph 23.0 mph N/A   Clear
8:36 PM 37.4 °F 29.3 °F 19.4 °F 48% 30.45 in 10.0 mi WSW 12.7 mph 20.7 mph N/A   Clear
8:56 PM 37.4 °F 30.3 °F 19.4 °F 48% 30.45 in 10.0 mi West 10.4 mph 16.1 mph N/A   Clear
9:16 PM 37.4 °F 31.4 °F 21.2 °F 52% 30.46 in 10.0 mi WSW 8.1 mph - N/A   Clear
9:36 PM 37.4 °F 30.8 °F 19.4 °F 48% 30.46 in 10.0 mi WSW 9.2 mph - N/A   Clear
9:56 PM 37.4 °F 31.4 °F 19.4 °F 48% 30.46 in 10.0 mi SW 8.1 mph - N/A   Clear
10:16 PM 37.4 °F 29.8 °F 19.4 °F 48% 30.45 in 10.0 mi SSW 11.5 mph 16.1 mph N/A   Clear
10:36 PM 37.4 °F 30.3 °F 19.4 °F 48% 30.45 in 10.0 mi SSW 10.4 mph 17.3 mph N/A   Clear
10:56 PM 37.4 °F 29.8 °F 19.4 °F 48% 30.44 in 10.0 mi South 11.5 mph - N/A   Clear
11:16 PM 37.4 °F 29.3 °F 19.4 °F 48% 30.44 in 10.0 mi South 12.7 mph - N/A   Clear
11:36 PM 37.4 °F 28.9 °F 21.2 °F 52% 30.43 in 10.0 mi South 13.8 mph - N/A   Clear
11:56 PM 37.4 °F 29.3 °F 21.2 °F 52% 30.43 in 10.0 mi South 12.7 mph - N/A   Clear